FW2418 Weather Reports


time (UTC)temp
F
wind
direction
speed
knots
gust
knots
rain 1hr
in
rain 24hr
in
rain mn
in
humidity
%
barometer
mb
20260905152751 87 281 0.9 1.7 0.00 0.25 0.01 86 1012.7
20260905151750 86 273 0.9 1.7 0.00 0.25 0.01 87 1012.7
20260905150749 86 279 0.9 0.9 0.00 0.25 0.01 88 1012.7
20260905145717 85 266 0.9 0.9 0.00 0.25 0.01 91 1012.7
20260905144716 83 313 0.9 0.9 0.00 0.25 0.01 94 1012.7
20260905143716 82 222 0.0 0.9 0.00 0.25 0.01 95 1012.7
20260905142715 81 222 0.0 0.9 0.00 0.25 0.01 96 1012.3
20260905141714 80 265 0.0 0.9 0.00 0.25 0.01 96 1012.3
20260905140713 79 264 0.0 0.9 0.00 0.25 0.01 97 1012.3
20260905135712 79 259 0.0 0.9 0.00 0.25 0.01 98 1012.3
20260905134711 79 226 0.0 0.0 0.00 0.25 0.01 99 1012.3
20260905133710 78 226 0.0 0.9 0.00 0.25 0.01 100 1012.3
20260905132709 78 226 0.0 0.9 0.00 0.25 0.01 100 1012.3
20260905131708 78 127 0.0 0.0 0.00 0.25 0.01 100 1012.3
20260905130708 77 127 0.0 0.0 0.00 0.25 0.01 100 1012.3
20260905125707 77 127 0.0 0.0 0.00 0.25 0.01 100 1012.3
20260905124706 77 127 0.0 0.0 0.00 0.25 0.01 100 1012.3
20260905123634 77 127 0.0 0.0 0.00 0.25 0.01 100 1011.9
20260905122602 77 127 0.0 0.0 0.00 0.25 0.01 100 1011.9
20260905121601 77 127 0.0 0.0 0.00 0.25 0.01 100 1011.9
20260905120600 76 127 0.0 0.0 0.00 0.25 0.01 100 1011.9
20260905115559 76 127 0.0 0.0 0.00 0.25 0.01 100 1011.9
20260905114558 76 127 0.0 0.0 0.00 0.25 0.01 100 1011.6
20260905113557 76 127 0.0 0.0 0.00 0.25 0.01 100 1011.6
20260905112556 76 127 0.0 0.0 0.00 0.25 0.01 100 1011.6
20260905111555 76 127 0.0 0.0 0.00 0.25 0.01 100 1011.6
20260905110554 76 127 0.0 0.0 0.00 0.25 0.01 100 1011.6
20260905105522 76 127 0.0 0.0 0.00 0.25 0.01 100 1011.3
20260905104522 76 127 0.0 0.0 0.00 0.25 0.01 100 1011.3
20260905103521 76 127 0.0 0.0 0.00 0.25 0.01 100 1010.9
20260905102520 75 127 0.0 0.0 0.00 0.25 0.01 100 1010.9
20260905101519 75 127 0.0 0.0 0.00 0.25 0.01 100 1010.9
20260905100518 75 127 0.0 0.0 0.00 0.25 0.01 100 1010.9
20260905095517 75 127 0.0 0.0 0.00 0.25 0.01 100 1010.9
20260905094516 75 127 0.0 0.0 0.01 0.25 0.01 100 1010.9
20260905093516 75 127 0.0 0.0 0.01 0.25 0.01 100 1010.9
20260905092515 75 127 0.0 0.0 0.01 0.25 0.01 100 1010.9
20260905091514 74 127 0.0 0.0 0.01 0.25 0.01 99 1011.3
20260905090514 74 127 0.0 0.0 0.01 0.25 0.01 99 1011.3
20260905085513 75 127 0.0 0.0 0.01 0.25 0.01 99 1011.3
20260905084441 75 127 0.0 0.0 0.00 0.24 0.00 99 1011.3
20260905083440 75 127 0.0 0.0 0.00 0.24 0.00 99 1011.3
20260905082408 75 127 0.0 0.0 0.00 0.24 0.00 99 1011.3
20260905081407 75 127 0.0 0.0 0.00 0.24 0.00 99 1011.3
20260905080406 75 127 0.0 0.0 0.00 0.24 0.00 99 1011.3
20260905075405 75 127 0.0 0.0 0.00 0.24 0.00 99 1011.3
20260905074404 75 127 0.0 0.0 0.00 0.24 0.00 99 1011.3
20260905073301 75 127 0.0 0.0 0.00 0.24 0.00 99 1011.0
20260905072300 75 127 0.0 0.0 0.00 0.24 0.00 99 1011.0
20260905071259 75 127 0.0 0.0 0.00 0.24 0.00 99 1011.0
20260905070259 75 127 0.0 0.0 0.00 0.24 0.00 99 1011.3
20260905065258 75 127 0.0 0.0 0.00 0.24 0.00 99 1011.3
20260905064226 76 127 0.0 0.0 0.00 0.24 0.00 99 1011.7
20260905063225 76 127 0.0 0.0 0.00 0.24 0.00 99 1011.7
20260905062224 76 127 0.0 0.0 0.00 0.24 0.00 99 1011.7
20260905061223 76 127 0.0 0.0 0.00 0.24 0.00 99 1012.0
20260905060222 76 127 0.0 0.0 0.00 0.24 0.00 99 1012.0
20260905055221 76 127 0.0 0.0 0.00 0.24 0.00 99 1012.0
20260905054150 76 127 0.0 0.0 0.00 0.24 0.00 99 1012.0
20260905053149 76 127 0.0 0.0 0.00 0.24 0.00 99 1012.4
20260905052046 76 127 0.0 0.0 0.00 0.24 0.00 99 1012.4
20260905051045 76 127 0.0 0.0 0.00 0.24 0.00 99 1012.4
20260905050044 76 127 0.0 0.9 0.00 0.24 0.00 99 1012.4
20260905045044 76 127 0.0 0.9 0.00 0.24 0.00 99 1012.7
20260905044043 76 127 0.0 0.0 0.00 0.24 0.00 99 1012.7
20260905043042 76 127 0.0 0.0 0.00 0.24 0.00 99 1012.7
20260905042041 76 127 0.0 0.0 0.00 0.24 0.00 99 1012.7
20260905041040 76 127 0.0 0.0 0.00 0.24 0.00 99 1012.7
20260905040008 76 127 0.0 0.0 0.00 0.24 0.24 99 1012.7
20260905034905 76 127 0.0 0.0 0.00 0.24 0.24 99 1012.7
20260905033904 76 127 0.0 0.0 0.00 0.24 0.24 99 1012.7
20260905032903 75 127 0.0 0.9 0.00 0.24 0.24 98 1012.7
20260905031903 75 127 0.0 0.9 0.00 0.24 0.24 99 1012.7
20260905030902 75 127 0.0 0.9 0.00 0.24 0.24 98 1013.0
20260905025901 75 144 0.0 0.0 0.00 0.24 0.24 98 1013.0
20260905024829 75 143 0.0 0.0 0.00 0.24 0.24 98 1013.0
20260905023828 75 144 0.0 0.0 0.00 0.24 0.24 98 1013.0
20260905022756 75 144 0.0 0.9 0.00 0.24 0.24 98 1013.0
20260905021755 75 143 0.0 0.9 0.00 0.24 0.24 98 1013.0
20260905020754 75 142 0.9 1.7 0.01 0.24 0.24 98 1013.0
20260905015753 76 356 0.9 1.7 0.02 0.24 0.24 98 1013.0
20260905014753 76 30 0.9 1.7 0.04 0.24 0.24 98 1013.0
20260905013752 76 101 0.9 1.7 0.06 0.24 0.24 98 1013.0
20260905012720 76 85 0.0 0.9 0.08 0.24 0.24 98 1013.0
20260905011648 76 18 0.0 1.7 0.09 0.24 0.24 98 1012.7
20260905010616 76 50 0.9 1.7 0.10 0.23 0.23 98 1012.7
20260905005615 76 20 0.9 1.7 0.11 0.22 0.22 98 1012.7
20260905004614 76 66 0.9 1.7 0.10 0.20 0.20 98 1012.7
20260905003543 76 124 0.0 0.9 0.07 0.17 0.17 98 1012.3
20260905002542 76 124 0.0 0.0 0.07 0.16 0.16 98 1012.3
20260905001510 76 124 0.0 0.0 0.05 0.14 0.14 97 1012.3
20260905000509 76 128 0.0 0.0 0.04 0.13 0.13 97 1012.3
20260904235508 76 129 0.0 0.9 0.02 0.11 0.11 97 1012.6
20260904234507 76 148 0.9 0.9 0.01 0.10 0.10 97 1012.3
20260904233506 76 121 0.0 0.9 0.02 0.10 0.10 96 1012.3
20260904232506 76 169 0.0 2.6 0.02 0.09 0.09 96 1012.6
20260904231433 77 114 1.7 3.5 0.03 0.09 0.09 96 1013.0
20260904230433 77 220 0.9 3.5 0.03 0.09 0.09 97 1013.0
20260904225432 78 119 0.9 2.6 0.03 0.09 0.09 97 1013.0
20260904224431 78 110 0.9 0.9 0.04 0.09 0.09 97 1013.0
20260904223430 78 115 0.0 0.9 0.06 0.08 0.08 97 1013.0
20260904222429 78 94 0.9 0.9 0.07 0.07 0.07 96 1013.0
20260904221428 78 131 0.9 1.7 0.06 0.06 0.06 96 1012.7
20260904220427 78 120 0.9 2.6 0.06 0.06 0.06 95 1012.0
20260904215356 78 78 0.9 2.6 0.06 0.06 0.06 94 1011.6
20260904214355 79 103 0.9 4.3 0.05 0.05 0.05 93 1011.3
20260904213354 80 311 0.0 6.1 0.02 0.02 0.02 89 1011.3
20260904212353 82 278 1.7 7.8 0.00 0.00 0.00 81 1010.3
20260904211352 87 265 3.5 7.8 0.00 0.00 0.00 74 1011.0
20260904210352 91 197 1.7 4.3 0.00 0.00 0.00 75 1011.0
20260904205351 93 61 1.7 4.3 0.00 0.00 0.00 71 1010.7
20260904204350 93 132 0.0 4.3 0.00 0.00 0.00 61 1010.7
20260904203349 93 168 0.9 7.0 0.00 0.00 0.00 63 1010.7
20260904202348 94 175 3.5 7.0 0.00 0.00 0.00 61 1010.7
20260904201347 94 222 0.0 6.1 0.00 0.00 0.00 63 1010.7
20260904200346 95 237 0.9 6.1 0.00 0.00 0.00 61 1010.7
20260904195345 95 136 0.0 7.8 0.00 0.00 0.00 61 1011.0
20260904194242 95 206 0.9 7.8 0.00 0.00 0.00 59 1011.0
20260904193241 96 173 1.7 7.8 0.00 0.00 0.00 59 1011.0
20260904192240 96 182 1.7 7.0 0.00 0.00 0.00 59 1011.3
20260904191239 96 174 2.6 7.0 0.00 0.00 0.00 59 1011.3
20260904190238 97 177 1.7 7.0 0.00 0.00 0.00 58 1011.7
20260904185237 96 165 2.6 7.0 0.00 0.00 0.00 61 1011.7
20260904184236 96 238 0.9 7.8 0.00 0.00 0.00 60 1012.0
20260904183235 96 176 2.6 7.8 0.00 0.00 0.00 59 1012.4
20260904182204 96 230 0.9 6.1 0.00 0.00 0.00 61 1012.4
20260904181131 95 163 2.6 6.1 0.00 0.00 0.00 61 1012.4
20260904180059 94 210 0.9 3.5 0.00 0.00 0.00 62 1012.4
20260904175027 94 171 1.7 4.3 0.00 0.00 0.00 63 1012.7
20260904174026 93 168 1.7 7.8 0.00 0.00 0.00 65 1012.7
20260904173025 95 117 1.7 7.8 0.00 0.00 0.00 60 1012.7
20260904172024 96 172 1.7 7.0 0.00 0.00 0.00 62 1013.0
20260904171024 95 167 0.9 7.0 0.00 0.00 0.00 61 1013.0
20260904170023 94 207 1.7 4.3 0.00 0.00 0.00 65 1013.4
20260904165022 93 329 0.9 5.2 0.00 0.00 0.00 67 1013.4
20260904163949 93 172 1.7 6.1 0.00 0.00 0.00 66 1013.4
20260904162917 93 205 1.7 6.1 0.00 0.00 0.00 67 1013.4
20260904161917 92 166 2.6 5.2 0.00 0.00 0.00 70 1013.4
20260904160845 92 176 2.6 5.2 0.00 0.00 0.00 70 1013.7
20260904155813 92 242 0.9 7.8 0.00 0.00 0.00 69 1013.7
20260904154812 92 177 3.5 7.0 0.00 0.00 0.00 71 1013.7
20260904153811 91 141 1.7 5.2 0.00 0.00 0.00 73 1013.7